This is the latest recevied weather packets stored in our database for station/object SQ5DCP-1. If no packets are shown the sender has not sent any weather packets the latest 1 day(s).
| Time | Temp. | Humidity | Pressure | Rain* | Wind** | Luminosity | Snow |
|---|---|---|---|---|---|---|---|
| 1778002228 | 23.89° C | 32% | 1006.7 hPa | 0 mm | 0.89 m/s, 163° | - | - |
| 1778001925 | 23.89° C | 32% | 1006.7 hPa | 0 mm | 0.89 m/s, 162° | - | - |
| 1778001624 | 24.44° C | 31% | 1006.8 hPa | 0 mm | 0.89 m/s, 167° | - | - |
| 1778001322 | 24.44° C | 31% | 1006.7 hPa | 0 mm | 0.89 m/s, 171° | - | - |
| 1778001020 | 24.44° C | 31% | 1006.7 hPa | 0 mm | 0.89 m/s, 171° | - | - |
| 1778000718 | 24.44° C | 31% | 1006.7 hPa | 0 mm | 0.45 m/s, 159° | - | - |
| 1778000449 | 24.44° C | 30% | 1006.8 hPa | 0 mm | 0.45 m/s, 177° | - | - |
| 1778000416 | 24.44° C | 30% | 1006.8 hPa | 0 mm | 0.45 m/s, 177° | - | - |
| 1778000134 | 24.44° C | 30% | 1006.8 hPa | 0 mm | 0.89 m/s, 179° | - | - |
| 1777999832 | 24.44° C | 30% | 1006.9 hPa | 0 mm | 0.45 m/s, 171° | - | - |
| 1777999530 | 24.44° C | 29% | 1006.8 hPa | 0 mm | 0.45 m/s, 149° | - | - |
| 1777999229 | 24.44° C | 28% | 1006.9 hPa | 0 mm | 0 m/s | - | - |
| 1777998927 | 24.44° C | 28% | 1006.8 hPa | 0 mm | 0.45 m/s, 172° | - | - |
| 1777998643 | 25° C | 28% | 1007 hPa | 0 mm | 0.89 m/s, 156° | - | - |
| 1777998625 | 24.44° C | 28% | 1006.9 hPa | 0 mm | 0.45 m/s, 176° | - | - |
| 1777998325 | 25° C | 28% | 1007 hPa | 0 mm | 0.89 m/s, 156° | - | - |
| 1777998021 | 25° C | 27% | 1007 hPa | 0 mm | 0.89 m/s, 168° | - | - |
| 1777997719 | 25° C | 27% | 1007 hPa | 0 mm | 0.89 m/s, 164° | - | - |
| 1777997449 | - | - | - | - | 26.82 m/s, 168° | - | - |
| 1777997417 | 25° C | 27% | 1007.1 hPa | 0 mm | 0.89 m/s, 168° | - | - |
| 1777997136 | 25° C | 27% | 1007.1 hPa | 0 mm | 0.45 m/s, 143° | - | - |
| 1777996834 | 25° C | 27% | 1007.2 hPa | 0 mm | 0.45 m/s, 158° | - | - |
| 1777996539 | 25° C | 26% | 1007.1 hPa | 0 mm | 0.89 m/s, 157° | - | - |
| 1777996230 | 25° C | 26% | 1007.2 hPa | 0 mm | 0.89 m/s, 147° | - | - |
| 1777995929 | 25° C | 26% | 1007.3 hPa | 0 mm | 0.45 m/s, 145° | - | - |
* Rain latest hour (hover to see other rain measurements)
** Current wind speed in m/s (hover to see current wind gust speed)